[[{"header":{"parameterUnit":"m.s-1","parameterCategory":1,"la1":30.2992,"la2":30.254,"lo1":-89.0895,"lo2":-89.0443,"dy":0.0025,"dx":0.0025,"nx":19,"ny":19,"refTime":"2026-04-01T03:00:00:Z","depth":0,"parameterNumber":2,"parameterNumberName":"U-component_of_WINDS"},"data":[0,0,0,-3.9237,-3.9241,-3.9396,-3.9397,-3.9594,-3.9596,0,0,0,0,0,0,0,0,0,0,0,-3.9191,-3.9192,-3.9237,-3.9241,-3.9396,-3.9397,-3.9594,-3.9596,0,0,0,0,0,0,0,0,0,0,0,-3.919,-3.9192,-3.9193,-3.9242,-3.9396,-3.9397,-3.9594,-3.9477,0,0,0,0,0,0,0,0,0,0,-3.9326,-3.9282,-3.9191,-3.9193,-3.9243,-3.9396,-3.9397,-3.9471,-3.9484,-3.9523,0,-3.9558,0,-3.9581,-3.9609,-3.961,0,0,0,-3.9241,-3.9271,-3.9314,-3.9194,-3.9244,-3.9396,-3.9326,-3.9478,-3.9493,-3.954,-3.9561,-3.9569,-3.9584,-3.9611,-3.9611,-3.9838,-3.9839,0,0,-3.9233,-3.9218,-3.9304,-3.9324,-3.93,-3.9321,-3.9331,-3.9487,-3.9509,-3.9562,-3.9573,-3.9587,-3.9612,-3.9613,-3.9837,-3.9838,0,0,0,-3.9208,-3.9212,-3.9251,-3.9315,-3.9344,-3.9326,-3.9337,-3.9502,-3.9516,-3.9575,-3.9589,-3.9613,-3.9615,-3.9836,-3.9837,-3.9873,0,0,0,-3.9203,-3.9198,-3.9247,-3.924,-3.9341,-3.9425,-3.9348,-3.9505,-3.9523,-3.9588,-3.9613,-3.9617,-3.9835,-3.9837,-3.987,-3.9892,0,0,0,-3.9181,-3.9195,-3.9217,-3.9239,-3.9305,-3.9423,-3.9445,-3.9509,-3.9532,-3.961,-3.9618,-3.9834,-3.9836,-3.9867,-3.9887,-3.9946,0,0,0,-3.9153,-3.9248,-3.9218,-3.9329,-3.9304,-3.9445,-3.9445,-3.955,-3.9622,-3.9614,-3.9835,-3.9837,-3.9866,-3.9884,-3.9942,-3.9991,-4.001,0,0,-3.9264,-3.926,-3.9327,-3.9305,-3.9447,-3.9422,-3.957,-3.9649,-3.967,-3.9781,-3.9787,-3.9871,-3.9887,-3.9945,-4.0129,-4.0144,0,0,0,-3.9357,-3.9405,-3.9446,-3.9514,-3.9577,-3.9633,-3.9692,-3.9722,-3.9817,-3.9724,-3.991,-3.992,-3.9955,-3.9978,-3.9991,-4.0021,-3.9848,-3.9848,-3.9848,-3.9491,-3.9514,-3.9625,-3.9667,-3.9733,-3.9793,-3.9848,-3.9899,-3.9902,-3.9946,-3.9977,-4.0086,-4.0114,-4.0124,-4.0155,-4.0007,-4.0007,-4.0008,-4.0008,-3.9654,-3.9724,-3.9727,-3.9836,-3.9859,-3.9951,-4.0014,-4.0013,-4.0101,-4.0064,-4.0096,-4.0051,-4.014,-4.0168,-4.0011,-4.001,-4.001,-4.001,-4.0009,-3.9742,-3.9779,-3.9815,-3.9915,-3.9991,-4.003,-4.0115,-4.0134,-4.0152,-4.0184,-4.0219,-4.0218,-4.0218,-4.02,-4.02,-4.0201,-4.0201,-4.0201,-4.0202,-3.9818,-3.9857,-3.9926,-4.0003,-4.0049,-4.0112,-4.0175,-4.0221,-4.0277,-4.0283,-4.0284,-4.0281,-4.0146,-4.0109,-4.0208,-4.0206,-4.0206,-4.0205,-4.0205,-3.9969,-3.9939,-4.0045,-4.0091,-4.0183,-4.0256,-4.028,-4.0372,-4.0413,-4.0454,-4.0447,-4.0344,-4.0341,-4.0331,-4.0301,-4.0443,-4.0443,-4.0443,-4.0443,-4.0041,-4.0043,-4.0156,-4.0229,-4.0302,-4.0335,-4.0455,-4.0505,-4.0552,-4.0579,-4.0562,-4.0525,-4.0514,-4.0518,-4.0503,-4.0475,-4.0659,-4.0659,-4.0659,-4.0135,-4.0145,-4.0242,-4.0288,-4.0361,-4.0424,-4.0536,-4.0619,-4.0667,-4.0668,-4.06,-4.0591,-4.0531,-4.0511,-4.0507,-4.0484,-4.0433,0,0]},{"header":{"parameterUnit":"m.s-1","parameterCategory":1,"la1":30.2992,"la2":30.254,"lo1":-89.0895,"lo2":-89.0443,"dy":0.0025,"dx":0.0025,"nx":19,"ny":19,"refTime":"2026-04-01T03:00:00:Z","depth":0,"parameterNumber":3,"parameterNumberName":"V-component_of_WINDS"},"data":[0,0,0,3.0117,3.012,3.0215,3.0216,3.0341,3.0343,0,0,0,0,0,0,0,0,0,0,0,3.0092,3.0093,3.0117,3.012,3.0215,3.0216,3.0341,3.0343,0,0,0,0,0,0,0,0,0,0,0,3.0092,3.0093,3.0094,3.012,3.0215,3.0216,3.0341,3.0267,0,0,0,0,0,0,0,0,0,0,3.0173,3.0154,3.0093,3.0094,3.0121,3.0215,3.0216,3.0264,3.0272,3.03,0,3.0327,0,3.0337,3.0351,3.0352,0,0,0,3.0117,3.0147,3.017,3.0094,3.0122,3.0215,3.0171,3.0268,3.0277,3.0311,3.0329,3.0333,3.0339,3.0352,3.0353,3.0531,3.0532,0,0,3.0111,3.0111,3.0164,3.0176,3.0164,3.0168,3.0174,3.0274,3.0292,3.0329,3.0336,3.0341,3.0353,3.0354,3.053,3.0531,0,0,0,3.0098,3.0107,3.0128,3.0171,3.0189,3.0171,3.0178,3.0288,3.0295,3.0338,3.0343,3.0354,3.0356,3.0529,3.053,3.0579,0,0,0,3.0095,3.0099,3.0126,3.0126,3.0187,3.024,3.019,3.0288,3.0299,3.0342,3.0354,3.0357,3.0528,3.0529,3.0575,3.0602,0,0,0,3.0085,3.0098,3.0113,3.0126,3.0167,3.0238,3.0251,3.0291,3.0303,3.0352,3.0357,3.0527,3.0529,3.0572,3.0597,3.065,0,0,0,3.0073,3.0153,3.0114,3.0206,3.0167,3.0268,3.025,3.0325,3.0373,3.0355,3.0528,3.053,3.0571,3.0593,3.0647,3.0695,3.0716,0,0,3.0174,3.0165,3.0219,3.0187,3.0296,3.0254,3.0369,3.0412,3.0416,3.0492,3.0496,3.0577,3.0596,3.0649,3.0828,3.0844,0,0,0,3.0251,3.029,3.0319,3.0366,3.0403,3.0437,3.0463,3.048,3.0544,3.0456,3.061,3.0622,3.0653,3.0676,3.069,3.0717,3.0541,3.054,3.054,3.0391,3.0395,3.0485,3.0501,3.0547,3.0575,3.0612,3.0639,3.0626,3.0663,3.0686,3.0794,3.0821,3.0831,3.086,3.0711,3.0711,3.0712,3.0712,3.0539,3.0596,3.0581,3.0664,3.0667,3.0735,3.0766,3.0755,3.0819,3.0776,3.0804,3.0757,3.0849,3.0874,3.0715,3.0715,3.0714,3.0714,3.0714,3.0632,3.066,3.0681,3.0751,3.0805,3.0818,3.0881,3.0881,3.0881,3.0908,3.0933,3.0932,3.0932,3.092,3.092,3.0921,3.0921,3.0921,3.0921,3.0721,3.0742,3.0797,3.0845,3.0877,3.0919,3.0949,3.098,3.1013,3.1008,3.1008,3.0994,3.0858,3.0824,3.0927,3.0926,3.0925,3.0925,3.0925,3.087,3.0837,3.0922,3.0954,3.1012,3.1066,3.1066,3.1129,3.1154,3.1186,3.1166,3.1065,3.1056,3.1045,3.1017,3.1164,3.1164,3.1164,3.1164,3.0949,3.0946,3.1033,3.1085,3.1136,3.1145,3.124,3.1266,3.1286,3.1302,3.128,3.1243,3.1232,3.1229,3.1214,3.1189,3.1376,3.1376,3.1377,3.1043,3.1044,3.1126,3.1148,3.1194,3.1233,3.1323,3.1382,3.1398,3.1385,3.1315,3.1306,3.1246,3.1226,3.1211,3.1188,3.114,0,0]}]]